Погода в Беневском

Россия / Приморский край     43°10′08″N   133°45′31″E
темп.,
°C
ветер,
м/с
пор.,
м/с
влажн.,
%
обл.,
%
осадки,
мм/ч
давл.,
гПа
погр.,
м
2 августа, пн
пн201:00+17св2210042 0.0 100959
04:00+16всв2210099 0.0 100969
07:00+17всв239679 0.0 1010121
10:00+21всв2375100 0.0 1009625
13:00+21всв2283100 0.6 1009415
16:00+20всв119399 0.9 1009143
19:00+20всв1197100 0.3 100983
22:00+18в1199100 0.8 101022
3 августа, вт
вт301:00+18юв0199100 0.2 100920
04:00+17ююз1210099 0.2 100965
07:00+17ю129999 0.0 1011195
10:00+18ю1199100 1.3 1011190
13:00+19ю1298100 0.8 1011245
16:00+24ююз2379100 0.9 1010670
19:00+23ю2385100 0.1 1010300
22:00+20ююв1295100 0.2 101166
4 августа, ср
ср401:00+19вюв1198100 0.8 101056
04:00+19вюв12100100 2.2 1009110
07:00+19вюв12100100 0.1 1009114
10:00+22юв129387 0.1 1009351
13:00+25ююз137814 1.4 1007902
16:00+26юз237112 3.5 10061048
19:00+25ююз2475100 0.3 1005299
22:00+19юз2298100 0.3 100732
5 августа, чт
чт501:00+18юз119939 0.0 100715
04:00+18зюз1199100 0.0 100611
07:00+19сз119895 0.0 100619
10:00+26ю016486 0.0 1005607
13:00+31ююз124496 0.0 10031884
16:00+26ю2370100 0.1 100387
19:00+24юз22887 0.8 100251
22:00+20з119661 1.1 100314
6 августа, пт
пт601:00+19з119597 0.0 100311
04:00+18зсз119456 0.0 100311
07:00+19сз119181 0.0 100311
10:00+26юв116192 0.0 1003579
13:00+31ююв22455 0.0 10021733
16:00+29ю335362 0.0 10001092
19:00+25ююв238110 1.0 1001430
22:00+20ююв129937 1.1 100231